FW4679 Weather Reports


Display with metric or nautical units.
time (UTC)temp
F
wind
direction
speed
MPH
gust
MPH
rain 1hr
in
rain 24hr
in
rain mn
in
humidity
%
barometer
mb
20260504160105 64 266 8.0 20.0 0.00 0.00 0.00 40 1013.8
20260504110106 47 209 3.0 8.0 0.00 0.00 0.00 57 1015.9
20260504081556 45 242 3.0 6.0 0.00 0.00 0.00 62 1016.1
20260504044538 47 224 1.0 3.0 0.00 0.00 0.00 63 1016.2
20260504043036 47 224 1.0 4.0 0.00 0.00 0.00 63 1016.3
20260504041533 48 224 2.0 4.0 0.00 0.00 0.00 61 1016.2
20260504040034 48 204 1.0 4.0 0.00 0.00 0.00 59 1016.3
20260504034530 49 205 1.0 3.0 0.00 0.00 0.00 60 1016.2
20260504033129 50 205 0.0 2.0 0.00 0.00 0.00 58 1016.3
20260504031529 50 205 1.0 4.0 0.00 0.00 0.00 57 1016.4
20260504030028 50 204 2.0 7.0 0.00 0.00 0.00 55 1016.3
20260504024528 51 205 2.0 3.0 0.00 0.00 0.00 55 1016.3
20260504023027 51 204 3.0 5.0 0.00 0.00 0.00 53 1016.4
20260504021526 51 229 3.0 5.0 0.00 0.00 0.00 54 1016.5
20260504020026 52 213 0.0 3.0 0.00 0.00 0.00 52 1016.3
20260504014525 53 213 1.0 3.0 0.00 0.00 0.00 48 1016.3
20260504013033 54 213 1.0 3.0 0.00 0.00 0.00 46 1016.2
20260504011528 54 213 1.0 4.0 0.00 0.00 0.00 43 1016.2
20260504010025 55 262 3.0 4.0 0.00 0.00 0.00 41 1016.0
20260504004528 56 301 0.0 4.0 0.00 0.00 0.00 40 1015.9
20260504003035 56 288 4.0 13.0 0.00 0.00 0.00 39 1015.9
20260504001525 56 218 2.0 5.0 0.00 0.00 0.00 40 1015.6
20260504000046 56 208 4.0 8.0 0.00 0.00 0.00 39 1015.4
20260503234522 56 273 4.0 8.0 0.00 0.00 0.00 39 1015.2
20260503233021 57 264 3.0 7.0 0.00 0.00 0.00 38 1015.2
20260503231521 57 234 4.0 9.0 0.00 0.00 0.00 38 1015.3
20260503230020 56 263 4.0 9.0 0.00 0.00 0.00 37 1015.2
20260503224519 56 270 2.0 7.0 0.00 0.00 0.00 39 1015.3
20260503223019 56 239 4.0 7.0 0.00 0.00 0.00 39 1015.4
20260503221518 56 244 3.0 9.0 0.00 0.00 0.00 39 1015.3
20260503220017 56 271 5.0 9.0 0.00 0.00 0.00 38 1015.7
20260503214517 55 254 5.0 11.0 0.00 0.00 0.00 41 1015.7
20260503213015 56 300 6.0 11.0 0.00 0.00 0.00 39 1015.6
20260503211516 55 231 7.0 13.0 0.00 0.00 0.00 41 1015.7
20260503210014 55 316 5.0 16.0 0.00 0.00 0.00 41 1015.7
20260503204512 55 296 13.0 21.0 0.00 0.00 0.00 39 1016.0
20260503203024 55 306 9.0 19.0 0.00 0.00 0.00 39 1016.0
20260503201512 56 294 11.0 18.0 0.00 0.00 0.00 36 1015.8
20260503200012 56 299 9.0 17.0 0.00 0.00 0.00 34 1015.8
20260503194514 56 280 10.0 17.0 0.00 0.00 0.00 34 1015.8
20260503193010 56 248 8.0 14.0 0.00 0.00 0.00 33 1016.2
20260503191509 56 268 11.0 18.0 0.00 0.00 0.00 33 1016.2
20260503190008 56 323 7.0 15.0 0.00 0.00 0.00 32 1016.2
20260503184507 55 315 6.0 19.0 0.00 0.00 0.00 32 1016.4
20260503183002 55 297 9.0 17.0 0.00 0.00 0.00 31 1016.6
20260503181502 55 345 13.0 18.0 0.00 0.00 0.00 30 1017.1
20260503180112 54 294 9.0 16.0 0.00 0.00 0.00 33 1017.1
20260503174555 54 300 7.0 17.0 0.00 0.00 0.00 33 1017.2
20260503173058 53 297 9.0 17.0 0.00 0.00 0.00 35 1017.6
20260503171550 52 309 6.0 16.0 0.00 0.00 0.00 36 1017.6